weather.gov     
National Weather Service

Regional Weather Roundup
NWS Homepage
This page is being discontinued on March 12, 2014.
The same data is available at this site. Please update your bookmarks.
Thank you, and we apologize for the inconvenience.
Please send an email to SR-SRH.Webmaster@noaa.gov with any concerns.


Current Version
Previous Version:    01  02  03  04  05  06  07  08  09  10  11  12  13  14  15  16  17  18  19  20  21  22  23  24  25  26  27  28  
[Printable]
462
ASUS42 KTBW 310510
RWRFL
FLORIDA REGIONAL WEATHER ROUNDUP
NATIONAL WEATHER SERVICE TAMPA BAY RUSKIN FL
100 AM EDT THU JUL 31 2014

NOTE: "FAIR" INDICATES FEW OR NO CLOUDS BELOW 12,000 FEET WITH NO
SIGNIFICANT WEATHER AND/OR OBSTRUCTIONS TO VISIBILITY.


FLZ001>010-012>015-112-114-115-310600-
PANHANDLE FLORIDA

CITY           SKY/WX    TMP DP  RH WIND       PRES   REMARKS
PENSACOLA      CLEAR     70  60  70 N5        30.01F
PENSACOLA NAS  CLEAR     66  62  87 CALM      30.01F
MILTON NAS     CLEAR     64  60  87 CALM      30.02F
CRESTVIEW      CLEAR     63  60  90 CALM      30.03F
DUKE FIELD     PTCLDY    64  61  89 CALM      30.02S
VALPARAISO     PTCLDY    70  60  69 CALM      30.01F
MARY ESTHER    CLEAR     68  59  71 N5        30.00F
TRI COUNTY     FAIR      65  63  93 CALM      30.02F
PANAMA CITY    FAIR      67  62  84 CALM      30.00F
TYNDALL AFB    CLEAR     70  65  83 CALM      30.01S
APALACHICOLA   CLEAR     68  66  93 NW3       29.99F

STATION/POSITION SKY/WX   TEMP    WIND        PRES    WAVE   SWELL
                          AIR SEA DIR/SP/G            HT/PER HT/PER
                          (F)     (DEG/KT/KT) (MB)    (FT/S) (FT/S)
30.1N   87.6W              81 83   40/ 12/ 14 1016.2F   1/ 3
29.2N   88.2W              81 85   40/  6/ 10 1016.6F
28.8N   86.0W              82 85   50/  8/ 10 1016.2    1/ 4
PANAMA CITY BEAC           75 81   20/  3/  4 1015.9F
CAPE SAN BLAS    NOT AVBL
TOWER C                    81     310/  9/  9 1015.6F
28.5N   84.5W              83 85  330/  6/  8 1015.6F   1/ 5   2/ 5

$$
FLZ011-016>038-118-127-128-134-139-239-310600-
NORTH FLORIDA

CITY           SKY/WX    TMP DP  RH WIND       PRES   REMARKS
MARIANNA       CLEAR     69  67  93 CALM      30.00F
TALLAHASSEE      N/A    N/A N/A N/A MISG      29.99F
PERRY          CLEAR     68  68 100 CALM      29.99F
CROSS CITY       N/A     71  66  84 CALM      29.98F
GAINESVILLE    CLEAR     73  66  78 NW6       29.99S
MAYPORT NAS    PTCLDY    80  73  79 SW5       29.97F
JACKSONVILLE   PTCLDY    76  73  91 CALM      29.96F
JAX NAS        PTCLDY    85  72  65 SE8       29.98S
JAX CRAIG      CLEAR     78  73  84 CALM      29.97F
JAX CECIL      CLEAR     70  68  94 CALM      29.98F
FERNANDINA BEA FAIR      79  72  78 CALM      29.96S
ST AUGUSTINE   CLEAR     78  70  76 SW6       29.98F

STATION/POSITION SKY/WX   TEMP    WIND        PRES    WAVE   SWELL
                          AIR SEA DIR/SP/G            HT/PER HT/PER
                          (F)     (DEG/KT/KT) (MB)    (FT/S) (FT/S)
SHELL POINT                78     340/  5/  6   N/A
KEATON BEACH               78      CALM  /  1 1015.3F
CEDAR KEY                  79     350/  4/  7 1015.9F
FERNANDINA                 81 86  160/  1/  2 1014.3F
30.7N   81.3W                 86                N/A     2/ 4
MAYPORT                    82 86  220/  4/  5   N/A
31.4N   80.9W              83 85  100/ 14/ 16 1014.8F   3/ 5   2/ 8
ST AUGUSTINE               79     220/  5/  7 1015.8F

$$
FLZ040-043>046-052-053-057-058-063-144-310600-
INTERIOR CENTRAL FLORIDA

CITY           SKY/WX    TMP DP  RH WIND       PRES   REMARKS
OCALA          CLEAR     73  61  64 N5        29.99F
LEESBURG       MOCLDY    78  67  68 NW5       29.99S
SANFORD        CLEAR     79  72  79 CALM      29.98S
ORLANDO EXEC   CLEAR     81  74  79 CALM      29.98S
ORLANDO INTL   CLEAR     79  74  84 CALM      29.98S
WINTER HAVEN   CLEAR     78  67  68 N3        29.99F
LAKELAND       CLEAR     77  64  65 CALM      29.99S
BARTOW         FAIR      79  64  61 NW3       29.99F
OKEECHOBEE       N/A     75  73  94 MISG      29.99S

$$
FLZ041-047-054-059-064-141-147-310600-
EAST CENTRAL FLORIDA

CITY           SKY/WX    TMP DP  RH WIND       PRES   REMARKS
DAYTONA BEACH  CLEAR     77  73  87 CALM      29.98S
DELAND         CLEAR     75  72  88 CALM      30.00S
JFK SPACE CTR  CLEAR     75  75 100 SE2       29.97F
CAPE CANAVERAL CLEAR     78  76  92 S3        29.97S
PATRICK AFB    CLEAR     81  75  82 S2        29.97S
MELBOURNE      CLEAR     81  74  79 CALM      29.97S
VERO BEACH     CLOUDY    77  74  90 W3        29.98R
FT PIERCE      MOCLDY    76  74  93 S3        29.98R
STUART         MOCLDY    77  73  88 CALM      29.99S

STATION/POSITION SKY/WX   TEMP    WIND        PRES    WAVE   SWELL
                          AIR SEA DIR/SP/G            HT/PER HT/PER
                          (F)     (DEG/KT/KT) (MB)    (FT/S) (FT/S)
28.5N   80.2W              83 83  180/  6/  6 1015.4F
28.9N   78.5W              84 85  190/  8/ 10 1015.6F
TRIDENT PIER               81 84  170/  4/  7 1014.6R
28.4N   80.5W                 83                N/A     2/ 9
27.6N   80.2W                 83                N/A     1/ 4

$$
FLZ050-056-061-142-242-148-248-149-249-151-251-155-255-
160-260-310600-
WEST CENTRAL FLORIDA

CITY           SKY/WX    TMP DP  RH WIND       PRES   REMARKS
CRYSTAL RIVER  FAIR      73  64  73 CALM      29.98F
INVERNESS      MOCLDY    75  61  60 CALM      29.99S
BROOKSVILLE    MOCLDY    75  66  73 CALM      29.99F
ZEPHYRHILLS    CLOUDY    72  66  83 CALM      29.99F
CLEARWATER     PTCLDY    81  66  60 N7        29.98F
TAMPA INTL     PTCLDY    79  65  62 N3        29.99S
TAMPA EXEC     PTCLDY    75  70  83 CALM      29.99S
PLANT CITY     MOCLDY    75  72  88 CALM      30.00F
MACDILL AFB    CLEAR     78  68  71 NE3       29.98F
ST PETERSBURG  PTCLDY    83  65  54 N6        29.97S
SARASOTA       CLEAR     81  67  62 N3        29.97S
VENICE         FAIR      81  70  69 NE7       29.99S

STATION/POSITION SKY/WX   TEMP    WIND        PRES    WAVE   SWELL
                          AIR SEA DIR/SP/G            HT/PER HT/PER
                          (F)     (DEG/KT/KT) (MB)    (FT/S) (FT/S)
CEDAR KEY                  79     350/  4/  7 1015.9F
28.5N   84.5W              83 85  330/  6/  8 1015.6F   1/ 5   2/ 5
27.3N   84.3W                 86                N/A     2/ 4
CLEARWATER BEACH           85 88  340/ 12/ 14 1015.0F
MIDDLE TAMPA BAY           84      10/  9/ 11 1015.5F
VENICE                     83 89   10/  8/  9 1015.0R

$$
FLZ066-069-070-075>078-162-262-165-265-310600-
SOUTHWEST FLORIDA AND KEYS

CITY           SKY/WX    TMP DP  RH WIND       PRES   REMARKS
PUNTA GORDA    MOCLDY    78  76  93 E3        30.00S
FT MYERS       MOCLDY    79  75  87 CALM      29.97S
SOUTHWEST INTL MOCLDY    79  75  87 CALM      29.98S
NAPLES         LGT RAIN  79  79 100 NE8       29.98S
MARCO ISLAND   CLEAR     81  72  74 W6        29.98S
MARATHON       CLOUDY    80  78  94 CALM      30.00S
KEY WEST NAS   MOCLDY    85  76  74 SW13      29.99F
KEY WEST INTL  HVY RAIN  83  73  72 VRB5      30.00S

STATION/POSITION SKY/WX   TEMP    WIND        PRES    WAVE   SWELL
                          AIR SEA DIR/SP/G            HT/PER HT/PER
                          (F)     (DEG/KT/KT) (MB)    (FT/S) (FT/S)
VENICE                     83 89   10/  8/  9 1015.0R
NAPLES                     81 93   40/  5/ 11 1016.0R
DRY TORTUGAS               85     250/  3/  5 1015.5F
NW FL BAY                  84      90/  9/ 14 1015.7S
SAND KEY                   85     220/  7/  8 1015.8F
SOMBRERO KEY               85     220/  8/  9 1016.7R
LONG KEY                   80 91   30/ 11/ 13 1017.1R
MOLASSES REEF              84 87  230/  5/  6 1016.0R

$$
FLZ067-068-071>074-168-172>174-310600-
SOUTHEAST FLORIDA

CITY           SKY/WX    TMP DP  RH WIND       PRES   REMARKS
W PALM BEACH   MOCLDY    78  75  90 CALM      29.98S
FT LAUDER-EXEC MOCLDY    79  77  94 CALM      29.99S
FT LAUDERDALE  MOCLDY    80  75  84 CALM      29.98F
POMPANO BEACH  MOCLDY   N/A N/A N/A MISG      29.99S
PEMBROKE PINES PTCLDY    79  77  94 CALM      30.00S
OPA LOCKA      PTCLDY    77  75  93 SE3       29.99F
MIAMI          MOCLDY    80  76  87 SE3       30.00S
WEST KENDALL   PTCLDY    82  77  84 S3        29.99F
HOMESTEAD      PTCLDY    80  76  89 S5        29.99F

STATION/POSITION SKY/WX   TEMP    WIND        PRES    WAVE   SWELL
                          AIR SEA DIR/SP/G            HT/PER HT/PER
                          (F)     (DEG/KT/KT) (MB)    (FT/S) (FT/S)
PORT EVERGLADES            79     260/  3/  4 1015.5
VIRGINIA KEY               81 89  250/ 13/ 18   N/A
LAKE WORTH                 80 84  210/  6/  7 1015.1S
FOWEY ROCKS                84 86  160/  9/ 10 1016.1S
SETTLEMENT POINT           83     170/ 12/ 14 1016.3F

$$





U.S. Dept. of Commerce
NOAA National Weather Service
1325 East West Highway
Silver Spring, MD 20910
E-mail: w-nws.webmaster@noaa.gov
Page last modified: May 16, 2007
NATIONAL WEATHER SERVICE: for Safety, for Work, for Fun - FOR LIFE